#timestamp,LO_Frequency,Hit,StdDev 
1507748415.1,286047000.0,N
1507748435.9,286047002.1,N
1507748455.7,286047001.1,N
1507748475.5,286047000.2,N
1507748495.4,286047000.1,N
1507748515.2,286047000.3,N
1507748535.0,286047002.1,N
1507748535.9,286047002.1,N
1507748555.8,286047001.3,N
1507748575.6,286046999.8,N
1507748595.4,286046995.3,N
1507748615.3,286047001.4,N
1507748635.1,286047008.3,Y
1507748636.0,286047008.3,P
1507748655.8,286047014.9,P
1507748675.7,286047017.5,N
1507748695.5,286047021.8,N
1507748715.3,286047027.2,Y
1507748735.2,286047016.7,P
1507748755.9,286047014.3,P
1507748775.7,286047014.8,P
1507748795.6,286047018.3,Y
1507748815.4,286047004.7,P
1507748835.2,286047006.7,N
1507748855.1,286047008.6,N
1507748856.0,286047008.6,N
1507748875.8,286047008.0,N
1507748895.6,286047014.0,Y
1507748915.5,286047003.8,P
1507748935.3,286047007.6,P
1507748955.1,286047008.9,P
1507748975.9,286047004.8,N
1507748995.7,286047005.0,N
1507749015.5,286047008.6,Y
1507749035.4,286047003.9,P
1507749055.2,286047002.3,N
1507749075.0,286047000.5,N
1507749075.9,286047000.5,N
1507749095.8,286047000.9,N
1507749115.6,286046999.3,N
1507749135.4,286046999.8,N
1507749155.3,286046997.7,N
1507749175.1,286046994.6,N
1507749176.0,286046994.6,N
1507749195.8,286046992.0,N
1507749215.7,286046990.1,N
1507749235.5,286046987.7,N
1507749255.3,286046989.2,N
1507749275.1,286046988.5,N
1507749295.9,286046992.7,N
1507749315.7,286046990.4,N
1507749335.5,286046988.6,N
1507749355.4,286046992.3,N
1507749375.2,286046993.8,N
1507749395.0,286046990.7,N
1507749395.9,286046990.7,N
1507749415.8,286046990.7,N
1507749435.6,286046993.2,N
1507749455.4,286046995.8,N
1507749475.3,286046994.3,N
1507749495.1,286046994.0,N
1507749496.0,286046994.0,N
1507749515.8,286046992.6,N
1507749535.6,286046991.9,N
1507749555.5,286046992.6,N
1507749575.3,286046990.5,N
1507749595.1,286046993.0,N
1507749615.9,286046996.0,N
1507749635.7,286046994.5,N
1507749655.5,286046994.1,N
1507749675.4,286046991.4,Y
1507749695.2,286046993.6,P
1507749715.0,286046989.0,P
1507749715.9,286046989.0,P
1507749735.8,286046987.9,Y
1507749755.6,286046994.4,P
1507749775.4,286046994.1,P
1507749795.3,286046992.8,P
1507749815.1,286046989.9,Y
1507749835.9,286046993.7,P
1507749855.7,286046995.5,P
1507749875.5,286046997.6,N
1507749895.3,286046999.4,N
1507749915.2,286046995.5,N
1507749935.0,286046991.8,Y
1507749935.9,286046991.8,P
1507749955.8,286046993.3,P
1507749975.6,286046993.9,P
1507749995.4,286046992.5,Y
1507750015.3,286046997.7,P
1507750035.1,286046997.4,N
1507750036.0,286046997.4,N
1507750055.8,286046996.8,N
1507750075.6,286046997.4,N
1507750095.5,286046996.7,N
1507750115.3,286046995.7,Y
1507750135.1,286046997.4,P
1507750155.9,286046996.5,P
1507750175.7,286046995.2,P
1507750195.6,286046997.6,Y
1507750215.4,286047002.2,P
1507750235.2,286046999.9,N
1507750255.0,286047001.0,N
1507750256.0,286047001.0,N
1507750275.8,286046998.7,N
1507750295.6,286047002.4,N
1507750315.4,286046999.8,N
1507750335.3,286047003.7,N
1507750355.1,286047005.6,N
1507750375.8,286047005.6,N
1507750395.7,286047003.5,N
1507750415.5,286047002.9,N
1507750435.3,286047005.3,N
1507750455.2,286047007.9,Y
1507750475.9,286047005.6,P
1507750495.7,286047001.3,N
1507750515.6,286047005.9,P
1507750535.4,286047003.7,N
1507750555.2,286046997.1,N
1507750575.1,286046998.2,N
1507750576.0,286046998.2,N
1507750595.8,286047009.1,N
1507750615.6,286047012.9,Y
1507750635.5,286047012.9,P
1507750655.3,286047016.4,P
1507750675.1,286047017.8,N
1507750695.9,286047023.2,Y
1507750715.7,286047013.0,P
1507750735.5,286047013.0,P
1507750755.4,286047012.5,P
1507750775.2,286047015.5,Y
1507750795.0,286047003.3,P
1507750795.9,286047003.3,N
1507750815.8,286047003.1,N
1507750835.6,286047002.5,N
1507750855.4,286047003.2,N
1507750875.3,286047005.9,N
1507750895.1,286047007.1,N
1507750896.0,286047007.1,N
1507750915.8,286047006.2,N
1507750935.6,286047005.0,N
1507750955.5,286047004.8,N
1507750975.3,286047006.6,N
1507750995.1,286047009.2,Y
1507751015.9,286046999.7,P
1507751035.7,286047000.8,N
1507751055.5,286047002.8,N
1507751075.4,286046999.2,N
1507751095.2,286046999.5,N
1507751115.0,286047000.5,N
1507751115.9,286047000.5,N
1507751135.8,286047002.5,N
1507751155.6,286047000.0,N
1507751175.4,286046999.2,N
1507751195.3,286047000.4,N
1507751215.1,286047000.6,N
1507751216.0,286047000.6,N
1507751235.8,286047002.7,N
1507751255.7,286047000.1,N
1507751275.5,286046999.8,N
1507751295.3,286046997.0,N
1507751315.1,286046997.9,N
1507751335.9,286046998.0,N
1507751355.7,286046995.2,N
1507751375.5,286046997.7,N
1507751395.4,286046997.9,N
1507751415.2,286046998.0,N
1507751435.0,286047000.9,N
1507751435.9,286047000.9,N
1507751455.8,286046998.6,N
1507751475.6,286047001.2,N
1507751495.4,286046998.9,N
1507751515.3,286046998.6,N
1507751535.1,286046996.8,N
1507751536.0,286046996.8,N
1507751555.8,286046997.0,N
1507751575.7,286046999.2,N
1507751595.5,286046999.7,N
1507751615.3,286046997.3,N
1507751635.2,286046996.0,N
1507751655.9,286046993.0,Y
1507751675.7,286046990.8,P
1507751695.6,286046987.1,P
1507751715.4,286046986.1,N
1507751735.2,286046984.9,N
1507751755.1,286046982.5,Y
1507751756.0,286046982.5,P
1507751775.8,286046992.1,N
1507751795.6,286046990.3,N
1507751815.5,286046991.1,N
1507751835.3,286046987.7,Y
1507751855.1,286046997.3,P
1507751875.9,286046999.5,N
1507751895.7,286046999.2,N
1507751915.5,286046999.1,N
1507751935.4,286046995.9,N
1507751955.2,286046996.1,N
1507751975.0,286046999.1,N
1507751975.9,286046999.1,N
1507751995.7,286047000.7,N
